TimePDT,TemperatureF,Dew PointF,Humidity,Sea Level PressureIn,VisibilityMPH,Wind Direction,Wind SpeedMPH,Gust SpeedMPH,PrecipitationIn,Events,Conditions,WindDirDegrees,DateUTC
12:55 AM,59.0,54.0,83,30.11,8.0,SSE,3.5,-,N/A,,Clear,150,2013-07-31 07:55:00
1:55 AM,57.9,54.0,87,30.10,8.0,Calm,Calm,-,N/A,,Clear,0,2013-07-31 08:55:00
2:33 AM,57.2,53.6,88,30.07,8.0,Calm,Calm,-,N/A,,Partly Cloudy,0,2013-07-31 09:33:00
2:46 AM,57.2,53.6,88,30.07,8.0,Calm,Calm,-,N/A,,Mostly Cloudy,0,2013-07-31 09:46:00
2:55 AM,57.0,53.1,87,30.10,8.0,Calm,Calm,-,N/A,,Overcast,0,2013-07-31 09:55:00
3:55 AM,60.1,55.0,83,30.10,8.0,Calm,Calm,-,N/A,,Overcast,0,2013-07-31 10:55:00
4:55 AM,60.1,55.0,83,30.10,9.0,West,3.5,-,N/A,,Overcast,260,2013-07-31 11:55:00
5:29 AM,60.8,55.4,82,30.08,9.0,Calm,Calm,-,N/A,,Overcast,0,2013-07-31 12:29:00
5:55 AM,60.1,55.0,83,30.11,9.0,Calm,Calm,-,N/A,,Overcast,0,2013-07-31 12:55:00
6:55 AM,60.1,55.0,83,30.12,8.0,West,3.5,-,N/A,,Overcast,270,2013-07-31 13:55:00
7:55 AM,61.0,55.0,81,30.13,7.0,Calm,Calm,-,N/A,,Overcast,0,2013-07-31 14:55:00
8:55 AM,62.1,55.0,78,30.14,8.0,Calm,Calm,-,N/A,,Overcast,0,2013-07-31 15:55:00
9:55 AM,62.1,55.0,78,30.14,7.0,SSW,4.6,-,N/A,,Overcast,200,2013-07-31 16:55:00
10:55 AM,64.0,55.0,73,30.14,8.0,Variable,4.6,-,N/A,,Overcast,0,2013-07-31 17:55:00
11:55 AM,66.0,55.9,70,30.13,8.0,SW,9.2,-,N/A,,Overcast,230,2013-07-31 18:55:00
12:55 PM,66.9,55.9,68,30.11,8.0,SSW,3.5,-,N/A,,Overcast,210,2013-07-31 19:55:00
1:38 PM,69.8,55.4,60,30.08,10.0,WSW,6.9,-,N/A,,Mostly Cloudy,240,2013-07-31 20:38:00
1:55 PM,70.0,55.9,61,30.09,10.0,SW,10.4,-,N/A,,Scattered Clouds,230,2013-07-31 20:55:00
2:55 PM,70.0,55.0,59,30.08,10.0,SSW,9.2,-,N/A,,Scattered Clouds,210,2013-07-31 21:55:00
3:55 PM,69.1,55.9,63,30.06,10.0,WSW,11.5,-,N/A,,Partly Cloudy,240,2013-07-31 22:55:00
4:55 PM,68.0,55.9,65,30.06,9.0,WSW,9.2,-,N/A,,Scattered Clouds,240,2013-07-31 23:55:00
5:19 PM,66.2,55.4,68,30.03,9.0,West,10.4,-,N/A,,Mostly Cloudy,260,2013-08-01 00:19:00
5:55 PM,64.9,55.9,73,30.04,9.0,SW,9.2,-,N/A,,Overcast,220,2013-08-01 00:55:00
6:55 PM,64.0,55.9,75,30.04,9.0,SW,6.9,-,N/A,,Overcast,230,2013-08-01 01:55:00
7:55 PM,62.1,55.9,80,30.04,8.0,Calm,Calm,-,N/A,,Overcast,0,2013-08-01 02:55:00
8:55 PM,61.0,55.0,81,30.04,9.0,West,4.6,-,N/A,,Overcast,260,2013-08-01 03:55:00
9:55 PM,61.0,55.0,81,30.05,9.0,Calm,Calm,-,N/A,,Overcast,0,2013-08-01 04:55:00
10:55 PM,61.0,55.0,81,30.04,9.0,Calm,Calm,-,N/A,,Overcast,0,2013-08-01 05:55:00
11:55 PM,61.0,55.9,83,30.04,9.0,Calm,Calm,-,N/A,,Overcast,0,2013-08-01 06:55:00